OBJECT C, 56155

Orbit data source: Space-Track

You're viewing an Uncataloged Satellite

Recently launched and/or uncataloged satellites may have evolving metadata. Metadata may include but not limited to: Owner, Maufacturer, Bus, Motor, and Mission.

OBJECT C, 56155 is a satellite owned by Hangtian Hongtu (CN) in SSO that was launched on Thu, 30 Mar 2023 UTC via a CHANG ZHENG 2D launch vehicle from the Taiyaun Space Center, China (TSC). Unknown objects in Earth's orbit typically refer to objects detected orbiting the Earth but have not yet been identified or cataloged. These objects could be anything from previously untracked satellites, spent rocket stages, debris from satellite collisions, or even natural meteoroids temporarily captured by Earth's gravity.

Loading next visibility...
Identifier
56155, 2023-047C
Orbit
SSO
Country
Flag of CNCN / PRC
Related business
Manufacturer
Yinhe
Mission
Operational Commercial Radar Imaging
Bus & Motor
PIESAT, Unknown motor
Mass
270 kg wet, 270 kg dry
Launch date (UTC)
2023-03-30 (3 years ago)
Launch vehicle
CHANG ZHENG 2D
Launch site
Taiyaun Space Center, China (TSC)
Object type
Unknown
Shape & HBR
Box + 2 Pan, 2.0 m
Radar Cross Section
2.315 m², Large (>1 m²)

Expand to show TLE details & history
Last TLE update: 3 days ago

TLE from 3 days ago
0 OBJECT C
1 56155U 23047C   26170.53370635  .00002033  00000-0  11464-3 0  9993
2 56155  97.5003 357.6358 0002606 123.5378 236.6103 15.14297592178156
Epoch: 2026-06-19T12:48Z
TLE epoch observation values (Epoch: 2026-06-19T12:48:32.228Z)
Latitude
-0.00003°
Longitude
-102.25979°
Altitude
527.182 km
Speed
7.599 km/s
True Right ascension
23h 50m 32s
True Declination
0° 00' 00"
Sunlit
Object was in daylight at epoch
Visualization orbit readout
Latitude
Unknown
Longitude
Unknown
Altitude
Unknown
Speed
Unknown
Apparent Right ascension
Unknown
Apparent Declination
Unknown
Sunlit
N/A
Visualization observer readout
Local Sidereal Time
21:39:25
Azimuth
Unknown
Elevation
Unknown
Doppler factor
Unknown
Orbital elements
Apogee altitude
521.887 km
Perigee altitude
518.292 km
Semi-major axis
6,898.226 km
Eccentricity
0.00026
Inclination
97.5003°
RAAN
357.6358°
Arg. of periapsis
123.5378°
True anomaly
236.58537°
Mean anomaly
236.6103°
Eccentric anomaly
236.59783°
Mean motion
3.78824 °/min
Orbital period
95.03 mins
BSTAR
0.00011464
Loading maneuver chart data...
Computing Atmospheric mass density...
Loading historical data...
Loading historical data...
Loading historical data...
Loading historical data...
Loading historical data...
Loading historical data...
Loading historical data...
Other satellites on launch #47 in the year 2023 (2023-03-30 UTC)

Documentation

Showing up to 5 results
|